Flag for Germany Weather past 2 weeks in Forchheim, Bavaria, Germany

Now
68 °F

Sunny.


Feels Like: 68 °F
Forecast: 61 / 94 °F
Wind: 2 mph from Northwest

Location: Bamberg

Current Time: Aug 5, 2015 at 10:55:52 AM

Latest Report: Aug 5, 2015 at 10:00 AM


Visibility: 41 mi

Pressure: 30.13 "Hg

Humidity: 56%

Dew point: 52 °F

Location of ForchheimLocation

Historic Weather in Forchheim — Graph

°F

Forchheim temperature yesterday

Maximum temperature yesterday: 90 °F (at 4:00 PM)
Minimum temperature yesterday: 56 °F (at 5:00 AM)
Average temperature yesterday: 72 °F

Past Weeks' High & Low Weather Summary

 TemperatureHumidityPressure
High95 °F (Jul 22, 4:00 PM)99% (Jul 23, 2:00 AM)30.14 "Hg (Jul 23, 2:00 AM)
Low44 °F (Jul 31, 4:00 AM)25% (Jul 26, 6:00 PM)29.64 "Hg (Jul 25, 1:00 AM)
Average67 °F64%29.92 "Hg
* Reported Jul 21 9:00 AM — Aug 5 9:00 AM, Forchheim, Weather by CustomWeather, © 2015

Note: Actual official high and low records may vary slightly from our data, if they occured in-between our weather recording intervals... More about our weather records

Advertising

Forchheim weather history for previous 24 hours

 ConditionsComfort  
Time TempWeatherWind HumidityBarometerVisibility
9:00 AM
Wed, Aug 5
65 °FPassing clouds.2 mph70%30.13 "Hg31 mi
8:00 AM61 °FPassing clouds.1 mph78%30.14 "Hg31 mi
7:00 AM56 °FSunny.1 mph91%30.13 "Hg22 mi
5:00 AM53 °FClear.No wind96%30.14 "Hg22 mi
4:00 AM55 °FClear.1 mph93%30.13 "Hg43 mi
3:00 AM62 °FPassing clouds.1 mph75%30.11 "Hg43 mi
2:00 AM64 °FPassing clouds.2 mph76%30.10 "Hg43 mi
1:00 AM65 °FClear.2 mph82%30.08 "Hg43 mi
11:00 PM
Tue, Aug 4
66 °FOvercast.1 mph83%30.05 "Hg43 mi
10:00 PM64 °FPassing clouds.1 mph85%30.05 "Hg43 mi
9:00 PM70 °FOvercast.2 mph69%30.02 "Hg43 mi
8:00 PM72 °FOvercast.3 mph65%30.00 "Hg43 mi
7:00 PM72 °FOvercast.5 mph63%29.98 "Hg43 mi
6:00 PM71 °FDrizzle. Overcast.5 mph71%29.98 "Hg31 mi
5:00 PM82 °FOvercast.9 mph43%29.90 "Hg22 mi
4:00 PM90 °FOvercast.7 mph31%29.84 "Hg25 mi
3:00 PM89 °FPartly sunny.5 mph33%29.84 "Hg34 mi
2:00 PM88 °FPassing clouds.3 mph30%29.85 "Hg22 mi
1:00 PM86 °FOvercast.3 mph30%29.87 "Hg28 mi
12:00 PM85 °FPassing clouds.5 mph38%29.88 "Hg22 mi
11:00 AM82 °FSunny.5 mph44%29.89 "Hg14 mi
10:00 AM79 °FSunny.5 mph50%29.90 "Hg19 mi
Weather by CustomWeather, © 2015

See weather overviewHow to use our weather pages